Weather History for KTCL - July, 2013

Change the Weather History Date:

Tuesday, July 30, 2013

  Actual Average Record
Temperature  
Mean Temperature 81 °F 82 °F  
Max Temperature 93 °F 92 °F 102 °F (1952)
Min Temperature 68 °F 72 °F 56 °F (2014)
Cooling Degree Days 16    
Growing Degree Days 31 (Base 50)    
Moisture  
Dew Point 72 °F    
Average Humidity 71    
Maximum Humidity 90    
Minimum Humidity 52    
Precipitation  
Precipitation T in 0.13 in 2.69 in (1950)
Month to date precipitation 6.83 4.28  
Year to date precipitation 34.47 32.45  
Sea Level Pressure  
Sea Level Pressure 30.12 in    
Wind  
Wind Speed 2 mph (SSW)    
Max Wind Speed 9 mph    
Max Gust Speed 15 mph    
Visibility 10 miles    
Events Rain    
T = Trace of Precipitation, MM = Missing Value Source: NWS Daily Summary

Daily Weather History Graph

Daily Weather History Graph

Search for Another Location

Airport or City:

Trip Planner

Search our weather history database for the weather conditions in past years. The results will help you decide how hot, cold, wet, or windy it might be!

Date:

Astronomy

Jul. 30, 2013 Rise Set
Actual Time 6:02 AM CDT 7:51 PM CDT
Civil Twilight 5:35 AM CDT 8:18 PM CDT
Nautical Twilight 5:02 AM CDT 8:50 PM CDT
Astronomical Twilight 4:27 AM CDT 9:25 PM CDT
Moon 12:17 AM CDT (7/30) 2:11 PM CDT (7/30)
Length of Visible Light 14h 43m
Length of Day
13h 48m
Last Quarter, 41% of the Moon is Illuminated
Jul 30
Last Quarter
Aug 6
New
Aug 14
First Quarter
Aug 20
Full
Aug 28
Last Quarter

Hourly Weather History & Observations

Time (CDT) Temp. Heat Index Dew Point Humidity Pressure Visibility Wind Dir Wind Speed Gust Speed Precip Events Conditions
12:53 AM 73.0 °F - 68.0 °F 84% 30.13 in 10.0 mi Calm Calm - N/A   Clear
1:53 AM 72.0 °F - 68.0 °F 87% 30.13 in 10.0 mi Calm Calm - N/A   Clear
2:53 AM 69.1 °F - 66.9 °F 93% 30.13 in 10.0 mi Calm Calm - N/A   Clear
3:53 AM 70.0 °F - 66.9 °F 90% 30.14 in 10.0 mi Calm Calm - N/A   Clear
4:53 AM 69.1 °F - 66.9 °F 93% 30.16 in 10.0 mi Calm Calm - N/A   Clear
5:53 AM 69.1 °F - 66.0 °F 90% 30.17 in 10.0 mi Calm Calm - N/A   Clear
6:53 AM 71.1 °F - 68.0 °F 90% 30.18 in 9.0 mi Calm Calm - N/A   Clear
7:53 AM 75.9 °F - 68.0 °F 76% 30.18 in 10.0 mi Calm Calm - N/A   Clear
8:53 AM 80.1 °F 82.3 °F 66.9 °F 64% 30.17 in 10.0 mi East 4.6 mph - N/A   Clear
9:53 AM 84.0 °F 87.0 °F 68.0 °F 58% 30.17 in 10.0 mi Calm Calm - N/A   Clear
10:53 AM 86.0 °F 91.5 °F 71.1 °F 61% 30.16 in 10.0 mi Variable 3.5 mph - N/A   Clear
11:53 AM 88.0 °F 96.5 °F 73.9 °F 63% 30.15 in 10.0 mi SW 4.6 mph - N/A   Clear
12:53 PM 90.0 °F 100.2 °F 75.0 °F 61% 30.14 in 10.0 mi SW 8.1 mph - N/A   Clear
1:53 PM 91.0 °F 100.4 °F 73.9 °F 57% 30.12 in 10.0 mi South 6.9 mph - N/A   Partly Cloudy
2:53 PM 91.0 °F 99.3 °F 73.0 °F 55% 30.10 in 10.0 mi West 5.8 mph - N/A   Clear
3:53 PM 93.0 °F 101.9 °F 73.0 °F 52% 30.08 in 10.0 mi SW 5.8 mph - N/A   Scattered Clouds
4:53 PM 91.9 °F 98.4 °F 71.1 °F 50% 30.07 in 10.0 mi WSW 3.5 mph - N/A   Clear
5:53 PM 91.0 °F 100.4 °F 73.9 °F 57% 30.06 in 10.0 mi Calm Calm - N/A   Clear
6:53 PM 88.0 °F 97.5 °F 75.0 °F 65% 30.06 in 10.0 mi Calm Calm - N/A   Clear
7:53 PM 82.9 °F 91.8 °F 77.0 °F 82% 30.06 in 10.0 mi Calm Calm - N/A   Clear
8:53 PM 82.9 °F 92.8 °F 78.1 °F 85% 30.08 in 9.0 mi Calm Calm - 0.00 in Rain Light Rain
9:53 PM 82.9 °F 92.8 °F 78.1 °F 85% 30.08 in 9.0 mi SSE 4.6 mph - 0.00 in   Clear
10:53 PM 82.0 °F 89.4 °F 75.9 °F 82% 30.08 in 10.0 mi SE 5.8 mph - N/A   Clear
11:53 PM 81.0 °F 86.7 °F 75.0 °F 82% 30.08 in 10.0 mi Calm Calm - N/A   Clear